Location: Joplin, MO
(37.0842°N, 94.5133°W)
Time: 14:01:08
(UTC+01:00)

Hubble Space Telescope - Visible Passes

Search period start: 01 December 2022 00:00
Search period end: 11 December 2022 00:00
Orbit: 530 x 534 km, 28.5° (Epoch: 30 November)

Date Brightness Start Highest point End Pass type
(mag) Time Alt. Az. Time Alt. Az. Time Alt. Az.
06 Dec 3.5 12:50:40 10° S 12:52:11 12° SSE 12:53:42 10° SE visible
07 Dec 3.4 12:37:20 10° SSW 12:39:26 14° SSE 12:41:32 10° SE visible
08 Dec 3.2 12:24:40 12° SSW 12:26:41 16° SSE 12:29:11 10° SE visible
09 Dec 2.9 12:13:04 17° S 12:13:56 18° SSE 12:16:42 10° SE visible
09 Dec 2.7 13:51:06 10° SW 13:54:26 24° S 13:57:45 10° SE visible
10 Dec 2.9 12:01:22 19° SSE 12:01:22 19° SSE 12:04:09 10° ESE visible
10 Dec 2.6 13:38:23 10° WSW 13:41:42 24° S 13:45:01 10° SE visible
